This is the latest recevied weather packets stored in our database for station/object OK2IGL-6. If no packets are shown the sender has not sent any weather packets the latest 10 day(s).
| Time | Temp. | Humidity | Pressure | Rain* | Wind** | Luminosity | Snow |
|---|---|---|---|---|---|---|---|
| 1777684572 | 5.56° C | 85% | 1022 hPa | - | - | - | - |
| 1777684142 | 5.56° C | 83% | 1022 hPa | - | - | - | - |
| 1777683713 | 5.56° C | 85% | 1022 hPa | - | - | - | - |
| 1777683283 | 5.56° C | 82% | 1023 hPa | - | - | - | - |
| 1777682854 | 5.56° C | 82% | 1022 hPa | - | - | - | - |
| 1777682425 | 5.56° C | 81% | 1022 hPa | - | - | - | - |
| 1777681995 | 5.56° C | 82% | 1022 hPa | - | - | - | - |
| 1777681565 | 6.11° C | 82% | 1022 hPa | - | - | - | - |
| 1777681136 | 6.67° C | 82% | 1022 hPa | - | - | - | - |
| 1777680707 | 6.11° C | 82% | 1022 hPa | - | - | - | - |
| 1777680116 | 6.67° C | 80% | 1022 hPa | - | - | - | - |
| 1777679687 | 6.67° C | 80% | 1023 hPa | - | - | - | - |
| 1777679257 | 6.67° C | 80% | 1022 hPa | - | - | - | - |
| 1777678828 | 6.67° C | 80% | 1022 hPa | - | - | - | - |
| 1777678398 | 6.67° C | 79% | 1022 hPa | - | - | - | - |
| 1777677969 | 6.67° C | 81% | 1022 hPa | - | - | - | - |
| 1777677539 | 6.67° C | 80% | 1022 hPa | - | - | - | - |
| 1777677110 | 6.67° C | 79% | 1022 hPa | - | - | - | - |
| 1777676680 | 6.67° C | 80% | 1023 hPa | - | - | - | - |
| 1777676251 | 6.67° C | 79% | 1022 hPa | - | - | - | - |
| 1777675821 | 7.22° C | 79% | 1022 hPa | - | - | - | - |
| 1777675392 | 7.78° C | 78% | 1022 hPa | - | - | - | - |
| 1777674963 | 7.78° C | 77% | 1023 hPa | - | - | - | - |
| 1777674534 | 7.78° C | 78% | 1022 hPa | - | - | - | - |
| 1777674105 | 7.78° C | 77% | 1022 hPa | - | - | - | - |
* Rain since midnight (hover to see other rain measurements)
** Current wind speed in m/s (hover to see current wind gust speed)